Terminal Aerodrome Forecast
Issued by NWS St Louis, MO

Home | Current Version | Previous Version | Text Only | Print | Product List | Glossary On
Versions: 1 2 3 4 5 6 7 8 9 10 11 12 13 14 15 16 17 18 19 20 21 22 23 24 25 26 27 28
000
FTUS43 KLSX 010520
TAFSTL
TAF
KSTL 010520Z 0106/0212 17005KT P6SM SKC
     FM011400 21008KT P6SM SCT045
     FM020100 18005KT P6SM SKC=

USA.gov is the U.S. government's official web portal to all federal, state and local government web resources and services.